Regional Weather Roundup
Issued by NWS Cleveland, OH

Home | Current Version | Previous Version | Text Only | Print | Product List | Glossary Off
Versions: 1 2 3 4 5 6 7 8 9 10 11 12 13 14 15 16 17 18 19 20 21 22 23 24 25 26 27 28 29 30 31 32 33 34 35 36 37 38 39 40 41 42 43 44 45 46 47 48 49 50

000
ASUS41 KCLE 230002
RWRCLE
OHIO REGIONAL WEATHER ROUNDUP
NATIONAL WEATHER SERVICE CLEVELAND, OH
800 PM EDT WED OCT 22 2014

NOTE: "FAIR" INDICATES FEW OR NO CLOUDS BELOW 12,000 FEET WITH NO
SIGNIFICANT WEATHER AND/OR OBSTRUCTIONS TO VISIBILITY.

OHZ001>008-015>018-024>027-034-035-043-044-230100-
   NORTHWEST OHIO

CITY           SKY/WX    TMP DP  RH WIND       PRES   REMARKS
DEFIANCE       CLEAR     43  38  82 CALM      30.30S
FINDLAY        PTCLDY    46  39  76 W6        30.27S
TOLEDO EXPRESS CLOUDY    48  40  73 W9        30.27F
TOLEDO EXEC    MOCLDY    48  40  73 CALM      30.28S
LIMA           CLOUDY    47  40  76 W3        30.28S
$$

OHZ009>014-019>023-028>033-038-089-230100-
   NORTHEAST OHIO

CITY           SKY/WX    TMP DP  RH WIND       PRES   REMARKS
CLE-HOPKINS    CLOUDY    51  42  71 N6        30.26F
CLE-LAKEFRONT  CLOUDY    53  41  63 N10       30.23F
CUY CO. ARPT   MOCLDY    52  45  76 CALM      30.23F
LORAIN-ELYRIA  CLOUDY    48  45  89 NW3       30.26S
ASHTABULA      CLEAR     41  39  93 CALM      30.23S
AKRON-CANTON   CLOUDY    49  40  71 N8        30.22S
WOOSTER        CLOUDY    49  42  77 N6        30.24S
MANSFIELD      CLOUDY    48  42  80 NW6       30.25S
YOUNGSTOWN     PTCLDY    43  40  89 N7        30.21S
$$

OHZ042-051>053-060>062-070>072-077>081-230100-
  SOUTHWEST OHIO

CITY           SKY/WX    TMP DP  RH WIND       PRES   REMARKS
CINC-COVINGTON MOCLDY    51  39  63 E7        30.26R
CINC-LUNKEN    CLOUDY    51  40  65 N6        30.28S
HAMILTON       CLOUDY    51  41  68 NE7       30.28S
DAYTON         CLOUDY    48  40  73 NE8       30.29R
WRIGHT-PAT AFB CLOUDY    49  40  73 N9        30.28R
DAYTON GENERAL CLOUDY    49  41  74 N7        30.27R
WILMINGTON     CLOUDY    47  39  74 NE10      30.27R
$$

OHZ036-037-039>041-045>050-054>059-063>069-073>076-082>088-230100-
  CENTRAL AND SOUTHEAST OHIO

CITY           SKY/WX    TMP DP  RH WIND       PRES   REMARKS
COLUMBUS       CLOUDY    50  41  71 N8        30.25S
OSU AIRPORT    CLOUDY    49  41  74 N6        30.26R
BOLTON FIELD   CLOUDY    48  43  81 NW3       30.26S
RICKENBACK AFB CLOUDY    49  42  77 NW7       30.26R
NEWARK         CLOUDY    50  40  68 N6        30.25R
MARION         CLOUDY    49  41  74 N6        30.26S
LANCASTER      CLOUDY    49  42  77 NW3       30.25S
ZANESVILLE     CLOUDY    48  40  73 NW7       30.22S
NEW PHILLY     CLOUDY    49  42  77 NW9       30.22F
$$



USA.gov is the U.S. government's official web portal to all federal, state and local government web resources and services.